[ hide orbit diagram ]
For accurate long-term ephemerides, please instead use our Horizons system.This orbit viewer was implemented using two-body methods, and hence should not be used for determining accurate long-term trajectories (over several years or decades) or planetary encounter circumstances.
Orbital Elements at Epoch 2459000.5 (2020-May-31.0) TDB
Reference: JPL 15 (heliocentric ecliptic J2000)
Element | Value | Uncertainty (1-sigma) | Units |
e | .07850696838535098 | 4.6179e-08 | |
a | 2.682388192449169 | 1.8459e-08 | au |
q | 2.471802027427324 | 1.2792e-07 | au |
i | 7.292299583762966 | 4.7344e-06 | deg |
node | 184.0952171888555 | 3.7425e-05 | deg |
peri | 260.4717027539677 | 5.0389e-05 | deg |
M | 23.39207819235723 | 3.1473e-05 | deg |
tp | 2458896.232928434306 (2020-Feb-16.73292843) | 0.00014052 | TDB |
period | 1604.652030272102 4.39 | 1.6564e-05 4.535e-08 | d yr |
n | .2243477048036107 | 2.3158e-09 | deg/d |
Q | 2.892974357471015 | 1.9909e-08 | au |
|
| | Orbit Determination Parameters
Additional Information
|
[ show covariance matrix ]
Physical Parameter Table
Parameter |
Symbol |
Value |
Units |
Sigma |
Reference |
Notes |
absolute magnitude |
H |
16.6 |
|
n/a |
MPO455183 |
|
|
295294 (2008 GE106) Discovered 2008-Apr-11 by Mt. Lemmon Survey at Mount Lemmon |
Reference: 20110912/Numbers.arc | Last Updated: 2011-09-14 |
|
|